Location: Olomouc
(49.5830°N, 17.2500°E)
Time: 21:13:52
(UTC+02:00)

ISS - Pass Details

Date: 08 May 2021
Orbit: 417 x 422 km, 51.6° (Epoch: 14 June)

Event Time Altitude Azimuth Distance (km) Brightness Sun altitude
Exits shadow 02:47:38 41° 273° (W) 620 -3.2 -18.2°
Maximum altitude 02:48:38 73° 346° (NNW) 446 -3.6 -18.1°
Drops below altitude 10° 02:52:02 10° 73° (ENE) 1,511 -0.3 -17.9°
Sets 02:54:09 0° 75° (ENE) 2,377 0.8 -17.7°
